Location: Caltech
(34.1382°N, 118.1253°W)
Time: 12:46:48
(UTC-07:00)

Iridium 21 - Visible Passes

Search period start: 07 July 2015 00:00
Search period end: 17 July 2015 00:00
Orbit: 776 x 779 km, 86.4° (Epoch: 07 July)

Date Brightness Start Highest point End Pass type
(mag) Time Alt. Az. Time Alt. Az. Time Alt. Az.
07 Jul 8.4 02:55:41 10° ENE 02:56:33 11° ENE 02:57:48 10° E visible
07 Jul 5.5 04:32:45 10° N 04:37:56 69° W 04:43:06 10° S visible
08 Jul 6.0 03:59:16 10° N 04:04:25 61° E 04:09:34 10° SSE visible
09 Jul 7.1 03:26:11 10° NNE 03:30:45 31° E 03:35:23 10° SE visible
09 Jul 6.7 05:07:12 10° NNW 05:11:21 24° W 05:15:22 10° SW visible
10 Jul 8.0 02:53:49 10° NE 02:56:55 16° ENE 03:00:16 10° ESE visible
10 Jul 5.9 04:33:00 10° NNW 04:37:59 45° W 04:42:19 13° SSW visible
11 Jul 5.5 03:59:18 10° N 04:04:32 89° W 04:08:18 19° S visible
12 Jul 6.4 03:25:57 10° NNE 03:30:57 46° E 03:34:20 20° SSE visible
12 Jul 7.2 05:08:08 10° NW 05:11:20 16° W 05:14:18 10° WSW visible
13 Jul 7.4 02:53:06 10° NNE 02:57:13 24° E 03:00:24 15° SE visible
13 Jul 6.4 04:33:26 10° NNW 04:38:00 31° W 04:40:50 18° SW visible
14 Jul 8.1 02:21:21 10° NE 02:23:19 12° ENE 02:25:38 10° E visible
14 Jul 5.6 03:59:27 10° N 04:04:36 60° W 04:06:55 31° SSW visible
15 Jul 5.7 03:25:54 10° N 03:31:06 70° E 03:33:02 39° SSE visible
15 Jul 7.5 05:10:25 10° WNW 05:11:17 10° W 05:11:45 10° W visible
16 Jul 6.8 02:52:43 10° NNE 02:57:28 36° E 02:59:11 29° ESE visible
16 Jul 6.9 04:34:06 10° NW 04:38:00 21° W 04:39:37 18° WSW visible
